< < Back
Terminal Aerodrome Forecast


Current Version              Previous Versions:   1  2  3  4  5  6  7  8  9  

Terminal Aerodrome Forecast

716
FTUS42 KJAX 271120
TAFJAX
TAF
KJAX 271120Z 2712/2812 VRB03KT P6SM FEW040 SCT130 BKN200
     FM271400 27005KT P6SM SCT030
     FM271900 15008KT P6SM SCT050
     FM280100 VRB04KT P6SM FEW030 SCT250=

Latest METAR

808
SAUS80 KWBC 271500
MTRJAX
METAR KJAX 271456Z 25004KT 10SM FEW025 SCT250 32/22 A3009 RMK AO2 SLP189
T03170217 50002


USA.gov is the U.S. government's official web portal to all federal, state and local government web resources and services.